Carrollton, GA

3:31 AM EST on November 18, 2019 (GMT -0500)
West Georgia Regional-Gray

Weather History for KCTJ - October, 2019

Change the Weather History Date:

Sunday, October 13, 2019

  Actual Average Record
Temperature  
Mean Temperature 59 °F -  
Max Temperature 62 °F 75 °F 87 °F (1954)
Min Temperature 56 °F 47 °F 30 °F (1988)
Degree Days  
Heating Degree Days 6    
Growing Degree Days 9 (Base 50)    
Moisture  
Dew Point 58 °F    
Average Humidity 93    
Maximum Humidity 97    
Minimum Humidity 80    
Precipitation  
Precipitation 0.00 in - - ()
Sea Level Pressure  
Sea Level Pressure 30.09 in    
Wind  
Wind Speed 1 mph (NW)    
Max Wind Speed 6 mph    
Max Gust Speed -    
Visibility 9 miles    
Events Rain    
Averages and records for this station are not official NWS values.
T = Trace of Precipitation, MM = Missing Value Source: NWS Daily Summary

Daily Weather History Graph

Daily Weather History Graph

Search for Another Location

Airport or City:

Astronomy

Oct. 13, 2019 Rise Set
Actual Time 7:43 AM EDT 7:09 PM EDT
Civil Twilight 7:18 AM EDT 7:34 PM EDT
Nautical Twilight 6:49 AM EDT 8:03 PM EDT
Astronomical Twilight 6:20 AM EDT 8:32 PM EDT
Moon 7:29 PM EDT (10/13) 7:21 AM EDT (10/13)
Length of Visible Light 12h 15m
Length of Day
11h 25m
Full, 100% of the Moon is Illuminated
Oct 13
Full
Oct 13
Full
Oct 21
Last Quarter
Oct 27
New
Nov 4
First Quarter

Hourly Weather History & Observations

Time (EDT) Temp. Dew Point Humidity Pressure Visibility Wind Dir Wind Speed Gust Speed Precip Events Conditions
12:15 AM 62.1 °F 55.9 °F 80% 30.09 in 10.0 mi Calm Calm - N/A   Overcast
12:35 AM 62.1 °F 55.8 °F 80% 30.08 in 10.0 mi North 3.5 mph - N/A   Overcast
12:55 AM 62.1 °F 55.8 °F 80% 30.08 in 10.0 mi Calm Calm - N/A   Overcast
1:15 AM 61.9 °F 55.9 °F 81% 30.07 in 10.0 mi Calm Calm - N/A   Overcast
1:35 AM 61.9 °F 56.1 °F 81% 30.07 in 10.0 mi Calm Calm - N/A   Overcast
1:55 AM 61.7 °F 56.3 °F 82% 30.06 in 10.0 mi North 3.5 mph - N/A Rain Rain
2:15 AM 60.8 °F 56.7 °F 86% 30.05 in 10.0 mi Calm Calm - N/A   Mostly Cloudy
2:35 AM 60.1 °F 56.5 °F 88% 30.05 in 10.0 mi Calm Calm - N/A Rain Rain
2:55 AM 59.9 °F 56.5 °F 88% 30.05 in 10.0 mi Calm Calm - N/A   Overcast
3:15 AM 59.9 °F 56.1 °F 87% 30.06 in 10.0 mi Calm Calm - N/A   Overcast
3:35 AM 60.1 °F 55.9 °F 86% 30.06 in 10.0 mi Calm Calm - N/A   Overcast
3:55 AM 60.3 °F 56.5 °F 87% 30.06 in 10.0 mi Calm Calm - N/A   Overcast
4:15 AM 60.1 °F 57.2 °F 90% 30.06 in 10.0 mi Calm Calm - N/A   Overcast
4:35 AM 60.1 °F 57.2 °F 90% 30.06 in 10.0 mi Calm Calm - N/A   Overcast
4:55 AM 60.1 °F 57.6 °F 91% 30.06 in 10.0 mi Calm Calm - N/A Rain Rain
5:15 AM 60.1 °F 58.1 °F 93% 30.05 in 10.0 mi Calm Calm - N/A Rain Light Rain
5:35 AM 59.7 °F 58.3 °F 95% 30.06 in 10.0 mi Calm Calm - N/A   Overcast
5:55 AM 59.7 °F 58.3 °F 95% 30.06 in 10.0 mi Calm Calm - N/A Rain Light Rain
6:15 AM 59.5 °F 58.3 °F 96% 30.06 in 1.8 mi Calm Calm - N/A Rain Heavy Rain
6:35 AM 59.2 °F 58.3 °F 97% 30.07 in 10.0 mi Calm Calm - N/A   Overcast
6:55 AM 59.2 °F 58.1 °F 96% 30.08 in 5.0 mi Calm Calm - N/A Rain Rain
7:15 AM 59.0 °F 57.9 °F 96% 30.08 in 10.0 mi Calm Calm - N/A   Overcast
7:35 AM 59.0 °F 57.9 °F 96% 30.09 in 10.0 mi Calm Calm - N/A   Overcast
7:55 AM 59.2 °F 57.9 °F 96% 30.09 in 10.0 mi Calm Calm - N/A   Overcast
8:15 AM 59.5 °F 58.5 °F 96% 30.10 in 10.0 mi Calm Calm - N/A   Overcast
8:55 AM 59.9 °F 59.0 °F 97% 30.11 in 10.0 mi Calm Calm - N/A   Drizzle
9:15 AM 59.7 °F 58.6 °F 96% 30.12 in 3.0 mi Calm Calm - N/A Rain Heavy Rain
9:35 AM 59.9 °F 58.6 °F 96% 30.12 in 5.0 mi Calm Calm - N/A   Light Drizzle
9:55 AM 60.1 °F 59.0 °F 96% 30.12 in 10.0 mi Calm Calm - N/A   Overcast
10:15 AM 60.8 °F 59.5 °F 96% 30.13 in 7.0 mi Calm Calm - N/A   Overcast
10:35 AM 60.6 °F 59.5 °F 96% 30.13 in 4.0 mi Calm Calm - N/A Rain Light Rain
10:55 AM 60.4 °F 59.4 °F 96% 30.13 in 4.0 mi NNW 5.8 mph - N/A Rain Light Rain
11:15 AM 60.6 °F 59.5 °F 96% 30.12 in 5.0 mi North 3.5 mph - N/A   Overcast
11:35 AM 60.8 °F 59.7 °F 96% 30.12 in 5.0 mi Calm Calm - N/A   Overcast
11:55 AM 60.8 °F 59.7 °F 96% 30.12 in 4.0 mi Calm Calm - N/A   Overcast
12:15 PM 60.8 °F 59.9 °F 97% 30.12 in 1.5 mi Calm Calm - N/A   Overcast
12:35 PM 61.0 °F 59.9 °F 96% 30.12 in 1.8 mi Calm Calm - N/A   Overcast
12:55 PM 61.2 °F 60.3 °F 97% 30.11 in 2.5 mi Calm Calm - N/A   Light Drizzle
1:15 PM 61.9 °F 60.4 °F 95% 30.11 in 10.0 mi Calm Calm - N/A   Overcast
1:35 PM 62.2 °F 60.1 °F 93% 30.10 in 10.0 mi Calm Calm - N/A   Overcast
2:15 PM 62.6 °F 60.3 °F 92% 30.10 in 10.0 mi Calm Calm - N/A   Overcast
2:35 PM 62.4 °F 60.4 °F 93% 30.10 in 7.0 mi Calm Calm - N/A Rain Rain
2:55 PM 62.1 °F 60.6 °F 95% 30.10 in 7.0 mi Calm Calm - N/A Rain Rain
3:15 PM 62.1 °F 61.0 °F 96% 30.10 in 7.0 mi Calm Calm - N/A Rain Rain
3:35 PM 62.1 °F 60.6 °F 95% 30.11 in 10.0 mi West 3.5 mph - N/A Rain Light Rain
3:55 PM 62.2 °F 60.6 °F 94% 30.09 in 10.0 mi Calm Calm - N/A Rain Light Rain
4:15 PM 62.4 °F 60.4 °F 93% 30.10 in 10.0 mi Calm Calm - N/A   Scattered Clouds
4:35 PM 62.1 °F 60.1 °F 93% 30.10 in 10.0 mi Calm Calm - N/A   Clear
4:55 PM 61.9 °F 59.9 °F 93% 30.08 in 10.0 mi Calm Calm - N/A   Clear
5:15 PM 61.7 °F 59.5 °F 93% 30.08 in 10.0 mi Calm Calm - N/A   Clear
5:35 PM 61.3 °F 59.4 °F 93% 30.08 in 10.0 mi Calm Calm - N/A   Scattered Clouds
5:55 PM 61.5 °F 59.7 °F 94% 30.08 in 10.0 mi Calm Calm - N/A   Overcast
6:15 PM 61.2 °F 59.9 °F 96% 30.08 in 7.0 mi Calm Calm - N/A Rain Rain
6:35 PM 61.0 °F 60.1 °F 97% 30.10 in 7.0 mi Calm Calm - N/A Rain Light Rain
7:15 PM 60.3 °F 59.0 °F 96% 30.09 in 10.0 mi Calm Calm - N/A Rain Light Rain
7:35 PM 59.9 °F 58.8 °F 96% 30.11 in 10.0 mi WNW 4.6 mph - N/A Rain Light Rain
7:55 PM 59.4 °F 58.3 °F 96% 30.10 in 10.0 mi Calm Calm - N/A Rain Light Rain
8:15 PM 59.2 °F 58.1 °F 96% 30.13 in 10.0 mi Calm Calm - N/A Rain Light Rain
8:35 PM 58.8 °F 57.6 °F 96% 30.14 in 10.0 mi West 4.6 mph - N/A   Mostly Cloudy
8:55 PM 58.5 °F 56.7 °F 94% 30.13 in 10.0 mi Calm Calm - N/A   Scattered Clouds
9:55 PM 57.7 °F 56.7 °F 96% 30.14 in 10.0 mi NW 4.6 mph - N/A   Overcast
10:15 PM 57.7 °F 56.7 °F 96% 30.13 in 10.0 mi Calm Calm - N/A Rain Light Rain
10:35 PM 57.6 °F 56.5 °F 96% 30.12 in 10.0 mi Calm Calm - N/A   Scattered Clouds
11:15 PM 57.0 °F 55.4 °F 94% 30.12 in 10.0 mi Calm Calm - N/A   Mostly Cloudy
11:35 PM 56.5 °F 55.2 °F 96% 30.12 in 10.0 mi Calm Calm - N/A   Clear
11:55 PM 56.5 °F 55.4 °F 96% 30.12 in 10.0 mi Calm Calm - N/A   Clear